Temp
-12 -12 -12 -12 -12 -12 -12 -12 -12 -12 -12 -12 -12 -12 -12 -12 -12 -12 -12 -12 -12 -12 -12 -12 -12 -12 -12 -12 -12 -12 -12 -12 -12 -12 -12 -12 -13 -14 -14 -15 -15 -16 -16 -15 -15
-12 -12 -12 -12 -12 -12 -12 -12 -12 -12 -12 -12 -12 -12 -12 -12 -12 -12 -12 -12 -12 -12 -12 -12 -12 -12 -12 -12 -12 -12 -12 -12 -12 -12 -13 -13 -14 -15 -15 -15 -16 -16 -16 -16 -16
-13 -12 -12 -12 -12 -12 -12 -12 -12 -12 -12 -12 -12 -12 -12 -12 -12 -12 -13 -13 -12 -12 -13 -13 -12 -12 -12 -13 -13 -13 -13 -13 -13 -13 -14 -15 -15 -15 -15 -15 -15 -16 -16 -16 -16
-13 -13 -12 -12 -12 -12 -12 -12 -12 -12 -12 -12 -12 -12 -12 -12 -12 -13 -13 -13 -13 -13 -13 -13 -13 -13 -13 -13 -13 -13 -13 -13 -14 -15 -15 -15 -15 -15 -15 -15 -15 -15 -16 -16 -17
-13 -13 -12 -12 -12 -12 -12 -12 -12 -12 -12 -12 -12 -12 -12 -12 -12 -13 -13 -13 -13 -13 -13 -13 -13 -13 -13 -13 -13 -14 -14 -15 -15 -15 -15 -15 -15 -15 -15 -15 -15 -15 -16 -17 -18
-13 -13 -13 -12 -12 -12 -12 -12 -12 -12 -12 -12 -12 -12 -12 -13 -13 -13 -13 -13 -13 -13 -13 -13 -13 -13 -13 -13 -14 -14 -15 -16 -16 -15 -15 -15 -15 -15 -15 -15 -16 -17 -18 -19 -20
-13 -13 -13 -13 -13 -13 -12 -12 -12 -13 -13 -13 -13 -13 -13 -13 -13 -13 -13 -13 -13 -13 -13 -13 -13 -13 -13 -14 -14 -14 -16 -16 -15 -15 -15 -15 -16 -15 -16 -17 -19 -20 -21 -23 -24
-13 -13 -14 -14 -13 -13 -13 -13 -13 -13 -13 -13 -13 -13 -13 -13 -13 -13 -13 -13 -13 -13 -14 -14 -14 -14 -14 -14 -14 -15 -16 -16 -15 -15 -16 -15 -16 -16 -17 -20 -21 -24 -25 -26 -26
-14 -14 -14 -14 -14 -14 -14 -14 -13 -13 -13 -13 -13 -13 -13 -13 -13 -13 -13 -13 -14 -14 -14 -14 -14 -14 -14 -14 -15 -16 -16 -16 -15 -15 -16 -16 -17 -17 -19 -21 -24 -26 -26 -26 -26
-14 -14 -14 -14 -14 -14 -14 -14 -14 -13 -13 -14 -14 -14 -14 -13 -14 -14 -14 -14 -14 -14 -14 -14 -14 -14 -15 -15 -15 -16 -16 -16 -16 -16 -16 -17 -17 -17 -20 -22 -25 -26 -26 -26 -26
-14 -14 -14 -14 -14 -14 -14 -14 -14 -13 -13 -14 -14 -14 -14 -14 -14 -14 -14 -14 -14 -14 -14 -14 -14 -15 -15 -15 -16 -16 -16 -15 -16 -16 -17 -17 -17 -18 -21 -23 -25 -25 -26 -26 -27
-14 -14 -14 -14 -14 -14 -14 -15 -14 -14 -14 -14 -14 -14 -14 -14 -14 -14 -14 -14 -14 -14 -14 -14 -15 -15 -15 -16 -17 -16 -16 -16 -17 -17 -17 -17 -18 -19 -22 -23 -24 -25 -26 -26 -27
-15 -15 -15 -15 -15 -15 -15 -15 -15 -14 -14 -14 -14 -14 -14 -14 -14 -14 -14 -15 -14 -14 -14 -15 -15 -15 -15 -16 -17 -17 -16 -16 -17 -17 -17 -17 -18 -19 -22 -22 -24 -25 -25 -26 -27
-15 -15 -15 -15 -16 -16 -16 -15 -15 -15 -14 -14 -14 -14 -14 -14 -15 -15 -15 -15 -15 -15 -15 -15 -15 -15 -16 -16 -17 -17 -16 -17 -17 -17 -17 -17 -18 -19 -22 -22 -24 -25 -25 -26 -26
-16 -16 -16 -16 -16 -16 -16 -16 -16 -15 -15 -15 -14 -14 -14 -14 -15 -15 -15 -15 -15 -15 -15 -15 -15 -16 -16 -17 -17 -17 -16 -17 -17 -16 -17 -17 -18 -19 -21 -23 -24 -24 -25 -26 -26
-17 -17 -17 -17 -17 -16 -16 -16 -16 -16 -15 -15 -15 -15 -15 -15 -15 -15 -15 -15 -15 -15 -15 -15 -16 -16 -16 -17 -17 -18 -17 -17 -17 -17 -17 -17 -18 -19 -21 -23 -24 -24 -25 -26 -26
-18 -18 -18 -18 -18 -17 -17 -16 -16 -16 -15 -15 -15 -15 -15 -15 -15 -15 -15 -15 -15 -15 -15 -15 -16 -16 -17 -17 -18 -18 -17 -17 -16 -17 -17 -17 -18 -19 -20 -22 -23 -24 -25 -25 -26
-19 -19 -19 -18 -18 -18 -18 -17 -17 -16 -16 -16 -15 -15 -15 -15 -15 -15 -15 -15 -15 -15 -15 -15 -16 -16 -17 -17 -18 -18 -17 -18 -17 -17 -17 -18 -18 -19 -20 -21 -23 -24 -24 -25 -26
-20 -20 -19 -19 -19 -18 -18 -17 -17 -17 -16 -16 -16 -15 -15 -15 -15 -15 -15 -15 -15 -15 -15 -15 -16 -16 -17 -18 -18 -18 -17 -17 -17 -17 -17 -17 -18 -19 -20 -21 -23 -23 -24 -24 -25
-20 -20 -20 -19 -19 -18 -18 -18 -17 -17 -17 -16 -16 -16 -16 -16 -16 -15 -15 -15 -16 -15 -15 -15 -16 -16 -17 -18 -18 -18 -18 -17 -18 -18 -17 -18 -18 -20 -20 -21 -21 -23 -24 -24 -25
-19 -19 -19 -20 -19 -18 -18 -18 -17 -17 -17 -17 -17 -16 -16 -16 -16 -16 -15 -16 -15 -15 -15 -16 -16 -16 -17 -18 -18 -18 -17 -18 -18 -18 -18 -18 -18 -19 -20 -21 -22 -23 -23 -23 -24
-19 -18 -19 -19 -20 -19 -18 -18 -18 -18 -17 -17 -17 -16 -16 -16 -16 -16 -15 -16 -16 -15 -15 -16 -16 -16 -17 -18 -18 -18 -18 -18 -18 -19 -19 -19 -18 -19 -19 -20 -22 -23 -23 -23 -23
-19 -19 -19 -19 -19 -20 -19 -18 -18 -18 -18 -17 -17 -17 -16 -16 -16 -16 -16 -16 -16 -15 -15 -16 -16 -16 -17 -17 -18 -17 -18 -18 -19 -19 -19 -19 -18 -19 -19 -19 -22 -23 -22 -22 -22
-20 -19 -19 -19 -19 -19 -20 -19 -18 -18 -18 -18 -17 -17 -16 -16 -16 -16 -16 -16 -16 -15 -15 -16 -16 -16 -17 -17 -17 -17 -18 -19 -19 -19 -19 -19 -19 -19 -18 -19 -19 -19 -20 -20 -21
-20 -20 -20 -19 -19 -19 -19 -19 -19 -19 -18 -18 -18 -17 -17 -16 -16 -16 -16 -16 -16 -15 -16 -16 -16 -16 -17 -17 -17 -17 -18 -19 -19 -19 -19 -19 -19 -19 -18 -19 -19 -19 -19 -20 -20
-20 -20 -20 -20 -20 -20 -19 -19 -20 -19 -19 -18 -18 -17 -17 -16 -16 -16 -16 -16 -16 -16 -15 -16 -16 -16 -17 -17 -17 -18 -18 -19 -19 -19 -19 -19 -19 -19 -18 -19 -19 -19 -19 -19 -19
-20 -20 -20 -20 -20 -20 -20 -19 -19 -19 -19 -18 -18 -17 -17 -17 -16 -16 -16 -16 -16 -16 -16 -16 -16 -16 -17 -17 -17 -17 -18 -19 -19 -19 -19 -19 -19 -19 -19 -19 -19 -19 -19 -19 -19
Height
5801 5800 5799 5798 5796 5793 5792 5791 5788 5785 5784 5782 5780 5779 5778 5777 5774 5772 5770 5768 5766 5765 5764 5763 5761 5758 5756 5753 5750 5746 5743 5738 5734 5729 5725 5720 5714 5709 5705 5701 5697 5693 5690 5690 5689
5797 5796 5795 5794 5793 5792 5789 5787 5785 5782 5781 5779 5777 5775 5774 5773 5771 5768 5767 5764 5763 5761 5759 5758 5756 5753 5750 5747 5743 5739 5735 5730 5724 5718 5712 5706 5702 5696 5693 5687 5683 5678 5673 5671 5671
5792 5792 5791 5791 5789 5788 5786 5784 5781 5779 5778 5777 5774 5772 5770 5768 5767 5765 5762 5760 5758 5756 5754 5752 5750 5747 5743 5739 5735 5732 5726 5720 5713 5707 5702 5696 5691 5685 5680 5675 5669 5663 5658 5651 5646
5789 5788 5787 5785 5784 5783 5782 5780 5777 5775 5773 5772 5770 5769 5766 5764 5764 5760 5758 5756 5754 5751 5749 5746 5744 5741 5737 5733 5728 5723 5717 5710 5704 5697 5691 5685 5680 5673 5665 5655 5648 5640 5634 5630 5625
5784 5783 5782 5781 5779 5778 5776 5775 5773 5770 5769 5767 5767 5764 5761 5760 5757 5756 5754 5751 5749 5747 5744 5741 5738 5734 5731 5726 5721 5715 5708 5702 5695 5688 5683 5677 5669 5659 5651 5640 5630 5619 5610 5603 5598
5778 5777 5776 5775 5774 5773 5771 5769 5768 5765 5763 5762 5761 5760 5757 5756 5752 5750 5748 5747 5744 5741 5739 5735 5732 5728 5724 5719 5714 5707 5700 5694 5688 5682 5676 5668 5657 5645 5635 5620 5607 5596 5586 5576 5571
5772 5771 5770 5769 5768 5767 5766 5765 5762 5761 5758 5757 5755 5754 5753 5750 5748 5745 5743 5742 5739 5736 5734 5730 5726 5722 5718 5712 5707 5700 5694 5686 5681 5674 5665 5655 5644 5632 5616 5601 5587 5572 5557 5549 5543
5765 5765 5764 5763 5762 5761 5760 5759 5757 5756 5753 5751 5750 5749 5747 5744 5741 5740 5738 5737 5734 5731 5728 5724 5719 5715 5711 5706 5699 5692 5687 5680 5672 5663 5653 5642 5630 5616 5598 5581 5564 5549 5538 5531 5526
5758 5757 5757 5756 5755 5754 5754 5753 5751 5749 5747 5745 5745 5744 5742 5739 5737 5734 5733 5731 5729 5726 5722 5718 5714 5710 5705 5699 5692 5686 5680 5671 5662 5653 5641 5629 5615 5599 5579 5561 5544 5534 5527 5522 5517
5750 5750 5749 5748 5747 5747 5746 5746 5745 5743 5741 5740 5738 5739 5737 5734 5732 5730 5727 5725 5723 5720 5717 5712 5708 5703 5698 5691 5683 5676 5671 5663 5652 5642 5629 5617 5601 5582 5562 5544 5533 5526 5520 5513 5507
5742 5741 5741 5740 5739 5739 5739 5739 5739 5737 5734 5734 5733 5731 5730 5729 5726 5724 5722 5720 5718 5714 5711 5707 5703 5697 5691 5685 5676 5669 5663 5655 5645 5634 5620 5607 5589 5571 5552 5536 5526 5520 5514 5505 5499
5731 5731 5733 5732 5731 5730 5729 5729 5730 5729 5729 5726 5725 5724 5723 5722 5721 5718 5716 5715 5712 5709 5705 5702 5697 5692 5685 5678 5670 5663 5655 5647 5639 5626 5612 5598 5579 5561 5544 5529 5521 5514 5507 5501 5494
5722 5722 5722 5723 5721 5720 5719 5720 5720 5719 5719 5720 5718 5717 5716 5716 5714 5712 5710 5708 5706 5703 5699 5695 5691 5685 5678 5671 5664 5656 5648 5640 5631 5620 5606 5592 5575 5555 5538 5524 5517 5509 5502 5495 5489
5714 5714 5714 5714 5715 5712 5712 5712 5711 5711 5710 5712 5711 5710 5709 5709 5708 5706 5704 5703 5700 5697 5693 5689 5684 5679 5672 5664 5657 5650 5642 5634 5625 5613 5599 5585 5570 5552 5534 5521 5512 5505 5497 5489 5482
5704 5704 5705 5705 5705 5704 5705 5704 5703 5703 5701 5704 5704 5702 5702 5702 5702 5700 5698 5696 5693 5690 5688 5684 5678 5674 5667 5658 5651 5643 5635 5628 5619 5607 5594 5581 5565 5547 5530 5518 5508 5501 5493 5486 5479
5694 5694 5695 5696 5696 5696 5696 5697 5697 5697 5694 5695 5696 5695 5696 5695 5695 5694 5692 5691 5688 5685 5682 5678 5673 5669 5661 5652 5645 5637 5630 5622 5614 5602 5591 5578 5563 5547 5529 5517 5504 5497 5490 5483 5477
5684 5683 5685 5686 5688 5688 5688 5689 5691 5689 5689 5689 5689 5688 5689 5689 5689 5687 5686 5685 5683 5680 5677 5673 5668 5663 5656 5647 5640 5632 5624 5616 5609 5599 5588 5574 5560 5545 5529 5516 5505 5496 5489 5483 5477
5676 5675 5675 5677 5679 5680 5680 5682 5681 5682 5682 5681 5681 5682 5682 5681 5682 5681 5680 5678 5677 5675 5671 5668 5664 5659 5651 5643 5635 5626 5620 5613 5604 5596 5585 5573 5559 5545 5529 5515 5503 5494 5488 5484 5479
5669 5667 5667 5667 5670 5672 5674 5673 5673 5674 5674 5673 5674 5674 5675 5675 5676 5675 5674 5673 5671 5669 5667 5662 5660 5654 5647 5639 5630 5622 5616 5610 5601 5592 5582 5572 5559 5544 5528 5514 5502 5494 5488 5484 5480
5662 5661 5660 5659 5660 5663 5664 5665 5665 5666 5666 5665 5665 5666 5667 5668 5669 5668 5668 5668 5666 5664 5662 5659 5655 5650 5643 5634 5627 5620 5614 5606 5598 5588 5579 5571 5558 5544 5529 5514 5502 5494 5489 5485 5483
5656 5655 5655 5652 5652 5654 5653 5655 5657 5658 5658 5658 5657 5658 5660 5662 5663 5662 5663 5662 5661 5659 5657 5654 5652 5648 5639 5631 5624 5619 5611 5602 5596 5589 5577 5568 5558 5545 5532 5515 5503 5495 5490 5488 5486
5650 5650 5649 5647 5647 5645 5646 5647 5649 5649 5650 5650 5650 5651 5652 5655 5656 5656 5656 5655 5656 5654 5653 5650 5647 5643 5637 5629 5622 5615 5607 5600 5593 5587 5577 5568 5560 5547 5535 5519 5505 5500 5494 5493 5491
5643 5644 5643 5642 5642 5640 5640 5640 5640 5641 5641 5643 5643 5644 5645 5648 5649 5650 5650 5650 5650 5649 5648 5646 5643 5638 5635 5629 5621 5613 5605 5597 5591 5585 5577 5568 5559 5550 5539 5525 5510 5505 5501 5499 5499
5637 5637 5637 5636 5636 5636 5634 5634 5634 5634 5635 5636 5637 5638 5638 5640 5642 5645 5644 5645 5645 5644 5643 5642 5640 5635 5630 5623 5616 5610 5603 5595 5588 5584 5577 5570 5562 5553 5545 5533 5520 5516 5511 5508 5508
5629 5629 5630 5631 5630 5630 5630 5628 5627 5628 5629 5630 5631 5631 5632 5634 5635 5638 5638 5639 5641 5640 5639 5638 5637 5633 5627 5621 5615 5608 5600 5593 5588 5583 5577 5571 5564 5557 5550 5541 5531 5529 5523 5520 5517
5620 5621 5624 5625 5625 5624 5623 5624 5623 5623 5623 5624 5624 5625 5625 5626 5630 5631 5632 5634 5636 5636 5635 5635 5634 5631 5626 5620 5614 5607 5599 5593 5589 5584 5579 5572 5567 5561 5555 5548 5540 5536 5533 5530 5528
5611 5613 5615 5618 5618 5619 5618 5618 5618 5617 5618 5618 5618 5618 5618 5620 5622 5624 5626 5629 5631 5632 5631 5631 5631 5629 5625 5620 5614 5607 5599 5594 5590 5586 5582 5576 5571 5565 5559 5554 5548 5543 5541 5539 5536
Wind_Speed
18 21 22 23 22 21 21 21 19 17 16 16 17 17 18 19 17 18 17 17 17 17 19 20 22 24 26 27 30 33 36 39 42 45 48 50 52 53 54 54 54 55 57 59 61
19 20 20 21 21 23 21 20 20 19 18 17 18 18 19 20 19 17 17 17 17 19 20 21 23 25 27 29 32 35 38 42 45 49 51 52 51 53 55 57 57 59 61 61 61
19 20 19 20 23 23 22 21 19 20 20 20 19 19 20 20 21 17 18 17 18 20 20 21 24 26 29 31 34 36 40 44 48 50 49 50 51 54 58 61 63 66 67 68 69
22 22 22 21 22 26 23 21 21 22 21 21 21 21 21 21 19 18 19 18 18 20 21 23 26 28 31 33 36 39 42 44 44 44 46 49 53 59 63 66 69 74 76 74 70
24 24 23 23 23 24 26 25 23 22 23 23 23 21 21 21 19 19 20 19 19 21 22 24 27 30 32 35 38 40 41 40 39 44 45 51 58 61 64 68 72 76 79 79 73
27 27 25 25 26 24 24 26 26 24 24 23 22 22 22 21 21 20 20 21 20 22 23 25 28 31 34 36 39 41 37 34 37 42 48 54 56 62 65 72 75 76 78 80 79
28 27 27 26 25 24 23 26 27 27 25 24 22 22 22 21 20 20 21 22 21 22 24 27 29 31 35 38 38 38 30 32 38 44 48 48 59 64 71 70 70 77 79 75 73
30 29 27 27 28 28 28 29 29 30 28 25 24 24 22 21 19 21 21 22 21 23 24 28 30 32 34 37 38 34 27 33 38 44 50 56 64 71 68 65 67 67 64 57 54
35 33 32 31 32 33 33 32 32 32 32 27 25 25 23 21 20 21 22 21 22 23 25 29 31 32 34 36 36 26 27 33 40 46 55 62 68 74 64 60 49 41 39 39 39
41 39 37 35 35 36 35 34 33 31 31 29 25 26 23 21 22 21 22 22 23 24 26 30 32 33 34 35 36 28 29 35 44 50 59 66 70 72 61 52 38 33 35 36 37
47 46 43 42 42 43 41 35 34 29 29 29 27 25 24 22 21 23 23 22 22 24 27 30 32 33 33 34 31 26 32 35 45 52 61 65 68 70 57 44 34 33 35 34 35
43 44 48 48 47 48 46 38 37 34 32 29 30 27 24 23 23 24 22 22 22 24 27 30 33 34 33 33 28 28 33 40 44 53 61 63 66 63 53 39 31 32 34 32 32
35 39 38 39 38 40 39 36 35 34 35 27 29 29 24 24 22 21 23 23 22 24 27 29 33 34 34 33 29 30 34 41 46 52 57 63 63 62 50 40 29 30 30 30 26
37 38 35 34 34 33 34 32 32 31 33 28 26 27 25 23 20 22 22 22 23 24 27 29 31 34 35 35 33 28 33 39 43 50 56 62 61 60 46 39 28 25 26 27 24
43 42 40 37 33 32 33 31 31 30 33 27 23 22 23 20 20 19 21 22 23 25 27 30 32 34 36 36 35 31 33 37 42 49 54 58 61 61 44 40 25 26 25 24 20
47 44 41 40 36 32 32 31 29 27 29 27 25 25 24 21 18 19 24 22 23 24 27 29 31 33 35 36 35 32 32 35 40 47 51 56 58 60 48 37 28 23 25 20 17
39 40 39 37 36 32 28 28 28 25 26 26 26 25 22 19 19 22 22 22 22 24 26 28 30 32 35 37 34 31 31 34 38 43 47 53 56 56 52 37 29 17 21 18 14
34 35 34 33 32 27 27 24 26 29 27 26 24 23 21 21 21 22 22 22 22 23 27 28 29 32 35 37 35 27 30 32 36 39 43 50 52 54 55 40 29 15 15 15 13
30 31 31 32 29 30 27 27 27 26 27 27 29 26 23 20 20 20 21 21 21 23 25 29 27 32 35 35 31 25 29 31 35 36 40 49 52 51 53 46 26 17 12 14 13
32 27 25 27 31 29 31 28 26 25 26 27 27 29 24 22 22 23 20 19 21 22 24 27 27 30 34 31 25 26 29 30 31 36 40 44 47 46 51 47 33 18 9 11 11
30 25 24 26 25 26 27 31 26 23 23 24 23 27 26 25 24 23 20 19 20 21 23 25 25 28 30 25 24 27 29 30 29 31 38 42 44 43 49 49 35 17 13 11 10
30 26 25 26 28 26 22 24 24 24 26 22 23 23 26 25 24 22 20 20 19 20 22 23 23 26 27 23 25 28 31 32 28 29 33 38 40 40 45 48 34 19 17 13 12
29 26 25 25 24 25 24 19 24 26 26 23 21 23 25 24 24 22 18 19 19 20 21 20 22 26 26 22 22 28 32 33 24 26 30 35 38 36 40 46 33 22 17 13 14
28 26 25 26 26 25 24 19 19 23 23 21 21 21 22 25 25 21 20 19 18 19 19 19 20 25 28 22 25 28 33 32 21 23 25 28 29 31 33 40 38 32 25 21 20
29 28 25 24 26 24 23 27 19 20 21 22 20 19 20 24 26 22 21 18 19 18 17 18 17 21 26 21 25 30 33 24 18 21 22 24 27 26 28 35 36 29 25 25 23
32 30 28 25 24 23 21 23 25 22 22 21 22 21 18 22 24 23 19 16 18 18 16 16 16 18 20 19 24 30 25 17 18 18 19 23 25 22 25 31 26 26 29 22 26
32 32 30 27 26 24 21 21 22 22 23 21 22 20 19 21 24 23 17 16 19 17 15 15 15 16 14 16 22 27 20 17 17 17 18 22 24 22 23 26 30 24 25 29 25
Wind_Direction
298 302 308 309 311 311 316 312 309 311 314 314 310 305 307 310 310 307 300 299 296 296 301 302 302 304 306 305 304 307 309 311 311 313 314 313 309 308 304 299 296 293 287 283 279
294 294 299 303 309 310 309 309 315 310 308 313 311 306 307 307 307 302 299 298 296 300 302 303 304 305 304 306 309 311 314 314 316 318 317 315 311 308 305 304 302 298 293 290 287
289 291 293 295 301 305 311 312 310 310 305 309 312 309 309 306 304 301 301 299 298 300 302 303 305 306 308 311 312 317 317 321 320 319 316 315 316 314 311 306 300 295 290 286 283
288 288 290 288 290 294 302 306 305 304 306 306 304 307 311 309 302 300 301 299 300 301 302 306 307 310 311 313 317 320 322 322 322 320 319 319 317 313 308 303 300 297 290 280 275
288 290 292 293 286 286 291 297 301 300 301 305 301 304 305 309 305 302 300 300 301 302 303 307 310 310 312 315 320 323 325 325 322 320 321 318 313 309 307 303 299 293 288 279 273
284 284 287 290 288 288 288 289 295 298 298 299 299 302 303 308 303 300 300 299 301 301 303 307 308 310 313 319 323 325 326 325 327 324 320 314 313 314 312 304 299 293 284 276 273
283 285 284 284 284 290 291 292 291 294 295 296 295 296 301 305 301 298 298 300 300 302 303 306 307 311 316 320 324 324 326 329 323 321 322 319 323 320 315 309 302 297 283 282 283
276 280 280 279 280 286 291 294 295 292 292 290 292 293 297 301 300 298 296 301 300 302 304 305 309 313 318 323 323 323 325 324 322 325 323 324 324 322 326 315 306 294 291 290 285
271 274 276 277 280 284 289 292 294 292 288 286 287 290 294 297 295 295 297 298 302 301 303 305 309 315 320 323 322 322 320 324 322 325 325 326 330 335 331 321 312 301 297 293 290
273 274 276 278 280 284 287 290 293 293 286 284 282 286 291 295 296 292 295 295 300 300 303 305 309 317 322 324 325 327 322 324 327 327 327 332 335 342 335 329 320 308 302 298 300
276 274 274 280 281 283 285 290 289 293 290 283 281 279 287 291 293 293 291 294 298 299 302 305 311 318 323 325 323 323 320 323 329 327 330 338 342 346 339 334 326 315 308 304 306
280 278 278 279 283 285 285 287 285 286 294 283 277 273 280 285 290 290 287 292 295 296 301 306 312 318 322 326 323 318 318 323 331 332 336 345 349 349 344 337 327 315 308 303 300
281 282 285 286 284 286 287 286 287 288 288 277 274 275 277 279 286 285 288 291 295 295 301 307 314 319 321 326 322 319 317 325 331 336 344 346 352 354 346 342 326 323 313 311 310
278 280 283 285 284 285 284 283 283 290 288 278 272 276 275 273 277 286 286 291 293 295 301 307 313 320 323 325 324 320 318 326 336 342 350 348 355 356 350 346 335 337 320 320 322
274 273 276 277 279 282 283 283 283 290 285 277 273 272 269 278 282 282 289 291 291 296 301 308 313 320 323 321 324 322 318 327 337 346 351 352 355 357 352 346 333 342 336 329 330
275 272 271 272 272 275 282 284 281 279 276 270 269 268 273 275 278 284 294 289 287 292 298 305 314 319 322 320 323 324 317 327 337 349 352 353 355 357 357 347 335 335 344 339 341
275 272 270 267 270 268 273 275 275 271 272 266 265 269 269 272 284 286 289 288 282 292 297 304 314 319 324 321 324 324 321 327 340 349 353 355 355 357 358 350 345 337 349 348 356
274 270 264 266 263 269 261 263 269 270 271 263 263 269 271 269 279 287 287 287 281 290 298 307 316 321 325 324 327 327 327 338 344 348 355 358 357 359 358 357 346 344 358 3 8
282 275 266 256 259 259 256 253 260 260 266 270 262 260 264 269 275 284 284 286 278 288 297 307 318 322 326 325 331 331 330 337 339 348 351 353 354 358 358 358 353 352 8 20 26
294 288 273 265 258 254 259 254 258 266 271 272 269 260 262 268 274 280 285 282 276 287 297 307 318 323 328 331 336 333 333 337 342 346 349 357 356 358 358 359 2 6 11 35 45
289 294 288 283 266 250 267 256 259 266 276 274 268 260 259 260 271 277 280 272 272 284 296 308 319 326 329 335 339 335 336 338 338 343 351 355 358 1 359 1 6 33 41 58 72
277 285 280 276 286 272 277 260 263 268 268 282 268 266 257 256 266 274 274 270 266 281 296 310 318 326 330 334 337 339 344 342 335 345 350 356 1 3 2 3 13 46 51 76 85
273 278 280 275 282 284 284 282 264 265 268 274 275 268 261 253 260 267 268 260 261 276 296 311 319 325 333 335 341 344 347 345 340 341 351 358 2 8 8 11 27 46 70 83 95
270 272 274 276 279 279 294 294 279 271 265 269 275 274 265 249 255 263 259 261 254 270 293 310 320 326 334 341 344 345 344 344 349 350 357 5 10 15 18 25 56 86 81 76 80
265 268 269 274 283 283 276 288 292 280 267 267 274 276 274 251 251 260 257 253 248 268 290 308 320 328 331 344 348 347 346 354 1 359 6 19 27 28 34 42 81 69 89 81 82
263 263 266 271 278 284 283 276 293 295 282 271 278 276 277 255 250 256 243 248 243 265 285 306 323 332 330 349 353 353 358 18 10 14 27 37 41 42 51 53 84 83 68 73 77
260 262 264 264 269 277 283 279 278 283 286 281 281 276 285 265 247 244 233 249 234 261 281 303 323 331 343 359 1 4 15 27 23 29 43 53 58 63 68 66 67 86 77 72 79